Home   Weather   Wollongong   Past weeks

Flag for Australia Past Weather in Wollongong, New South Wales, Australia — Yesterday and Last 2 Weeks

Now
72 °F

Partly sunny.


Feels Like: 75 °F
Forecast: 67 / 85 °F
Wind: 10 mph from North

Location: Sydney Airport

Current Time: Dec 8, 2016 at 7:33:12 am

Latest Report: Dec 8, 2016 at 7:00 am


Visibility: N/A

Pressure: 29.80 "Hg

Humidity: 69%

Dew Point: 61 °F

Location of WollongongLocation

Past Weather in Wollongong — Graph

°F

Wollongong Temperature Yesterday

Maximum temperature yesterday: 77 °F (at 3:30 pm)
Minimum temperature yesterday: 68 °F (at 2:30 am)
Average temperature yesterday: 72 °F

High & Low Weather Summary for the Past Weeks

 TemperatureHumidityPressure
High95 °F (Dec 2, 1:30 pm)94% (Nov 23, 3:30 pm)30.07 "Hg (Nov 23, 3:30 pm)
Low57 °F (Nov 24, 4:30 am)15% (Dec 2, 3:00 pm)29.65 "Hg (Dec 1, 5:30 pm)
Average72 °F68%29.88 "Hg
* Reported Nov 23 6:00 am — Dec 8 6:00 am, Wollongong, Weather by CustomWeather, © 2016

Note: Actual official high and low records may vary slightly from our data, if they occured in-between our weather recording intervals... More about our weather records

Advertising

Wollongong Weather History for the Previous 24 Hours

Scroll right to see more
 ConditionsComfort  
Time TempWeatherWind HumidityBarometerVisibility
6:00 am
Thu, Dec 8
70 °FPartly sunny.9 mph73%29.83 "HgN/A
5:30 am70 °FPassing clouds.10 mph73%29.83 "HgN/A
5:00 am70 °FPassing clouds.10 mph73%29.83 "HgN/A
4:30 am70 °FPassing clouds.7 mph78%29.83 "HgN/A
4:00 am70 °FPassing clouds.10 mph78%29.83 "HgN/A
3:00 am70 °FPassing clouds.13 mph78%29.86 "HgN/A
2:30 am70 °FPassing clouds.13 mph78%29.86 "HgN/A
2:00 am70 °FPassing clouds.14 mph78%29.89 "HgN/A
1:00 am70 °FPartly cloudy.15 mph78%29.89 "HgN/A
12:30 am72 °FPartly cloudy.15 mph73%29.92 "HgN/A
12:00 am72 °FPassing clouds.20 mph73%29.92 "HgN/A
11:30 pm
Wed, Dec 7
72 °FPartly cloudy.18 mph73%29.95 "HgN/A
11:00 pm72 °FPassing clouds.14 mph73%29.95 "HgN/A
10:00 pm72 °FPassing clouds.13 mph69%29.95 "HgN/A
9:00 pm72 °FPassing clouds.14 mph69%29.95 "HgN/A
8:30 pm72 °FPassing clouds.15 mph69%29.95 "HgN/A
8:00 pm73 °FPassing clouds.16 mph65%29.95 "HgN/A
7:30 pm72 °FPartly sunny.15 mph69%29.95 "HgN/A
7:00 pm72 °FPartly sunny.18 mph69%29.95 "HgN/A
6:00 pm73 °FPartly sunny.18 mph61%29.92 "HgN/A
5:30 pm73 °FPartly sunny.16 mph61%29.92 "HgN/A
5:00 pm73 °FPartly sunny.17 mph61%29.92 "HgN/A
4:00 pm73 °FPartly sunny.15 mph61%29.92 "HgN/A
3:30 pm77 °FPartly sunny.16 mph54%29.95 "HgN/A
3:00 pm75 °FScattered clouds.15 mph57%29.95 "HgN/A
2:30 pm75 °FScattered clouds.13 mph57%29.95 "HgN/A
2:00 pm73 °FPartly sunny.12 mph61%29.98 "HgN/A
1:30 pm73 °FPartly sunny.13 mph61%29.98 "HgN/A
1:00 pm73 °FScattered clouds.14 mph61%29.98 "HgN/A
12:30 pm75 °FScattered clouds.14 mph61%29.98 "HgN/A
12:00 pm75 °FScattered clouds.14 mph61%29.98 "HgN/A
11:30 am75 °FScattered clouds.13 mph61%30.01 "HgN/A
11:00 am73 °FScattered clouds.12 mph61%29.98 "HgN/A
10:30 am73 °FScattered clouds.13 mph65%29.98 "HgN/A
10:00 am73 °FSprinkles. Partly sunny.12 mph65%29.98 "HgN/A
9:30 am72 °FScattered clouds.14 mph69%29.98 "HgN/A
9:00 am72 °FScattered clouds.15 mph73%29.98 "HgN/A
8:30 am72 °FScattered showers. Broken clouds.15 mph73%29.98 "HgN/A
8:00 am70 °FSprinkles. Broken clouds.14 mph78%29.95 "HgN/A
7:30 am70 °FScattered showers. Broken clouds.12 mph83%29.95 "HgN/A
Weather by CustomWeather, © 2016

See weather overviewHow to use our weather pages